Weather History for KMGW - December, 2012

Change the Weather History Date:

Monday, December 10, 2012

  Actual Average Record
Temperature  
Mean Temperature 49 °F 36 °F  
Max Temperature 62 °F 44 °F 75 °F (1971)
Min Temperature 36 °F 29 °F -1 °F (1958)
Degree Days  
Heating Degree Days 16 29  
Month to date heating degree days 146 275  
Since 1 July heating degree days 1267 1323  
Cooling Degree Days 0 0  
Month to date cooling degree days 0 0  
Year to date cooling degree days 1141 814  
Moisture  
Dew Point 46 °F    
Average Humidity 84    
Maximum Humidity 100    
Minimum Humidity 67    
Precipitation  
Precipitation 0.60 in 0.10 in - ()
Month to date precipitation 2.24 1.02  
Year to date precipitation 32.71 39.94  
Sea Level Pressure  
Sea Level Pressure 29.69 in    
Wind  
Wind Speed 6 mph (WSW)    
Max Wind Speed 15 mph    
Max Gust Speed 24 mph    
Visibility 7 miles    
Events Rain , Snow    
T = Trace of Precipitation, MM = Missing Value Source: NWS Daily Summary

Daily Weather History Graph

Daily Weather History Graph

Search for Another Location

Airport or City:

Trip Planner

Search our weather history database for the weather conditions in past years. The results will help you decide how hot, cold, wet, or windy it might be!

Date:

Astronomy

Dec. 10, 2012 Rise Set
Actual Time 7:29 AM EST 4:55 PM EST
Civil Twilight 6:59 AM EST 5:25 PM EST
Nautical Twilight 6:25 AM EST 5:59 PM EST
Astronomical Twilight 5:53 AM EST 6:32 PM EST
Moon 4:11 AM EST (12/10) 2:43 PM EST (12/10)
Length of Visible Light 10h 26m
Length of Day
9h 25m
Waning Crescent, 10% of the Moon is Illuminated
Dec 10
Waning Crescent
Dec 13
New
Dec 20
First Quarter
Dec 28
Full
Jan 4
Last Quarter

Hourly Weather History & Observations

Time (EST) Temp. Windchill Dew Point Humidity Pressure Visibility Wind Dir Wind Speed Gust Speed Precip Events Conditions
12:53 AM 60.1 °F - 53.1 °F 78% 29.77 in 8.0 mi South 4.6 mph - 0.02 in Rain Light Rain
1:53 AM 60.1 °F - 53.1 °F 78% 29.73 in 10.0 mi SSW 5.8 mph - 0.00 in   Overcast
2:53 AM 61.0 °F - 51.1 °F 70% 29.71 in 10.0 mi South 5.8 mph - N/A   Partly Cloudy
3:53 AM 62.1 °F - 51.1 °F 67% 29.69 in 10.0 mi SSW 5.8 mph - N/A   Overcast
4:53 AM 59.0 °F - 53.1 °F 81% 29.73 in 10.0 mi Variable 6.9 mph - 0.00 in Rain Light Rain
5:04 AM 57.2 °F - 53.6 °F 88% 29.73 in 4.0 mi WSW 4.6 mph - 0.02 in Rain Rain
5:53 AM 55.9 °F - 53.1 °F 90% 29.72 in 10.0 mi SSW 5.8 mph - 0.04 in Rain Light Rain
6:53 AM 55.0 °F - 53.1 °F 93% 29.71 in 10.0 mi South 6.9 mph - 0.04 in Rain Light Rain
7:53 AM 55.9 °F - 53.1 °F 90% 29.71 in 9.0 mi South 5.8 mph - 0.01 in Rain Light Rain
8:53 AM 55.0 °F - 53.1 °F 93% 29.71 in 4.0 mi South 5.8 mph - 0.04 in Rain Light Rain
9:53 AM 55.9 °F - 53.1 °F 90% 29.70 in 10.0 mi SSW 8.1 mph - 0.06 in Rain Light Rain
10:53 AM 57.0 °F - 53.1 °F 87% 29.66 in 10.0 mi Variable 5.8 mph - 0.00 in   Overcast
11:53 AM 57.9 °F - 51.1 °F 78% 29.62 in 10.0 mi Variable 6.9 mph - N/A   Overcast
12:53 PM 57.0 °F - 52.0 °F 83% 29.60 in 10.0 mi South 6.9 mph - 0.00 in Rain Light Rain
1:35 PM 55.4 °F - 53.6 °F 94% 29.60 in 5.0 mi SSW 11.5 mph 18.4 mph 0.04 in Rain Light Rain
1:53 PM 55.9 °F - 53.1 °F 90% 29.58 in 6.0 mi SW 11.5 mph 17.3 mph 0.05 in Rain Light Rain
2:04 PM 55.4 °F - 53.6 °F 94% 29.60 in 6.0 mi SSW 8.1 mph - 0.01 in Rain Light Rain
2:53 PM 55.0 °F - 53.1 °F 93% 29.58 in 8.0 mi South 11.5 mph - 0.04 in Rain Light Rain
3:53 PM 55.0 °F - 52.0 °F 89% 29.57 in 10.0 mi SW 10.4 mph - 0.01 in   Overcast
4:13 PM 55.4 °F - 51.8 °F 88% 29.60 in 4.0 mi WNW 5.8 mph - 0.00 in Rain Light Rain
4:15 PM 55.4 °F - 51.8 °F 88% 29.60 in 2.5 mi WNW 10.4 mph 17.3 mph 0.03 in Rain Light Rain
4:22 PM 53.6 °F - 50.0 °F 88% 29.60 in 1.2 mi WNW 8.1 mph 17.3 mph 0.05 in Rain Light Rain
4:27 PM 53.6 °F - 50.0 °F 88% 29.60 in 4.0 mi WNW 6.9 mph - 0.05 in Rain Light Rain
4:44 PM 53.6 °F - 48.2 °F 82% 29.59 in 7.0 mi WNW 8.1 mph - 0.06 in Rain Light Rain
4:53 PM 52.0 °F - 48.9 °F 89% 29.60 in 7.0 mi WNW 8.1 mph - 0.06 in Rain Light Rain
5:05 PM 51.8 °F - 48.2 °F 88% 29.62 in 10.0 mi WNW 4.6 mph - 0.00 in Rain Light Rain
5:26 PM 51.8 °F - 48.2 °F 88% 29.62 in 10.0 mi WNW 5.8 mph - 0.00 in   Overcast
5:53 PM 50.0 °F - 46.9 °F 89% 29.64 in 4.0 mi NW 4.6 mph - 0.01 in Rain Light Rain
6:00 PM 50.0 °F - 48.2 °F 94% 29.64 in 5.0 mi NNW 4.6 mph - 0.00 in   Overcast
6:31 PM 46.4 °F 41.9 °F 42.8 °F 87% 29.67 in 6.0 mi NNW 9.2 mph 24.2 mph 0.01 in Rain Light Rain
6:53 PM 44.1 °F 40.1 °F 39.9 °F 85% 29.72 in 5.0 mi NW 6.9 mph 23.0 mph 0.03 in Rain Light Rain
7:11 PM 42.8 °F 38.6 °F 39.2 °F 87% 29.71 in 6.0 mi NNW 6.9 mph 17.3 mph 0.05 in Rain Light Rain
7:34 PM 42.8 °F 38.0 °F 37.4 °F 81% 29.75 in 5.0 mi WNW 8.1 mph 16.1 mph 0.08 in Rain Rain
7:53 PM 41.0 °F 35.8 °F 37.0 °F 86% 29.75 in 7.0 mi NW 8.1 mph 16.1 mph 0.09 in Rain Light Rain
8:01 PM 39.2 °F 35.0 °F 37.4 °F 93% 29.75 in 7.0 mi NNW 5.8 mph - 0.00 in Rain Light Rain
8:11 PM 39.2 °F 33.6 °F 35.6 °F 87% 29.75 in 10.0 mi NNW 8.1 mph - 0.00 in   Overcast
8:21 PM 39.2 °F 35.0 °F 35.6 °F 87% 29.74 in 10.0 mi North 5.8 mph - 0.00 in   Overcast
8:53 PM 39.0 °F 33.4 °F 35.1 °F 86% 29.76 in 9.0 mi North 8.1 mph - 0.01 in Rain Light Rain
9:10 PM 39.2 °F - 35.6 °F 87% 29.77 in 7.0 mi Calm Calm - 0.01 in Rain Light Rain
9:21 PM 39.2 °F 37.0 °F 35.6 °F 87% 29.80 in 6.0 mi WSW 3.5 mph - 0.01 in Rain Light Rain
9:42 PM 37.4 °F - 35.6 °F 93% 29.78 in 4.0 mi Calm Calm - 0.04 in Rain Rain
9:53 PM 37.0 °F 34.5 °F 34.0 °F 89% 29.82 in 6.0 mi SW 3.5 mph - 0.05 in Rain Light Rain
10:02 PM 37.4 °F 34.9 °F 35.6 °F 93% 29.82 in 7.0 mi SSW 3.5 mph - 0.00 in   Overcast
10:10 PM 37.4 °F 33.8 °F 35.6 °F 93% 29.82 in 5.0 mi SSW 4.6 mph - 0.01 in Rain Light Rain
10:53 PM 36.0 °F - 35.1 °F 97% 29.82 in 7.0 mi Calm Calm - 0.04 in Rain , Snow Light Snow
11:53 PM 37.0 °F - 35.1 °F 93% 29.83 in 10.0 mi Calm Calm - 0.00 in   Overcast